Regional Weather Roundup
Issued by NWS Charleston, WV

Home | Current Version | Previous Version | Graphics & Text | Print | Product List | Glossary On
Versions: 1 2 3 4 5 6 7 8 9 10 11 12 13 14 15 16 17 18 19 20 21 22 23 24 25 26 27 28 29 30 31 32 33 34 35 36 37 38 39 40 41 42 43 44 45 46 47 48 49 50
914
ASUS41 KRLX 260110
RWRRLX
West Virginia Regional Weather Roundup
National Weather Service Charleston WV
900 PM EDT SAT MAR 25 2017

Note: "fair" indicates few or no clouds below 12,000 feet with no
significant weather and/or obstructions to visibility.

WVZ003-260200-
Northern Panhandle of West Virginia

CITY           SKY/WX    TMP DP  RH WIND       PRES   REMARKS
WHEELING       CLOUDY    67  49  52 E9        30.12F
$$

WVZ009-260200-
Northwest West Virginia

CITY           SKY/WX    TMP DP  RH WIND       PRES   REMARKS
PARKERSBURG    CLOUDY    69  49  48 E5        30.11S
$$

WVZ006-260200-
Western West Virginia

CITY           SKY/WX    TMP DP  RH WIND       PRES   REMARKS
HUNTINGTON     MOCLDY    69  47  45 NE6       30.05F
$$

WVZ015-260200-
West Central West Virginia

CITY           SKY/WX    TMP DP  RH WIND       PRES   REMARKS
CHARLESTON     CLOUDY    70  47  43 NE5       30.07S
$$

WVZ022-031-260200-
North Central West Virginia

CITY           SKY/WX    TMP DP  RH WIND       PRES   REMARKS
CLARKSBURG     CLOUDY    67  48  50 E3        30.13S
MORGANTOWN     CLOUDY    67  48  50 CALM      30.14F
$$

WVZ025-035-042-045-260200-
Southern West Virginia

CITY           SKY/WX    TMP DP  RH WIND       PRES   REMARKS
BECKLEY        CLOUDY    66  46  48 SE12      30.15R
LOGAN            N/A     68  46  45 CALM      30.09R
BLUEFIELD      NOT AVBL
LEWISBURG      CLOUDY    64  47  53 SE7       30.18R
$$

WVZ047-260200-
Northern Mountains of West Virginia

CITY           SKY/WX    TMP DP  RH WIND       PRES   REMARKS
ELKINS         PTCLDY    58  47  66 CALM      30.16F
$$

WVZ052-260200-
Eastern Panhandle of West Virginia

CITY           SKY/WX    TMP DP  RH WIND       PRES   REMARKS
MARTINSBURG    CLOUDY    68  50  52 CALM      30.16R
PETERSBURG     CLOUDY    62  54  76 NW5       30.17R
$$




USA.gov is the U.S. government's official web portal to all federal, state and local government web resources and services.